Weather History for Ottumwa, IA

Change the Weather History Date:

Saturday, June 22, 2013

  Actual Average Record
Temperature  
Mean Temperature 85 °F 73 °F  
Max Temperature 93 °F 83 °F 97 °F (1988)
Min Temperature 77 °F 63 °F 45 °F (1902)
Degree Days  
Heating Degree Days 0 0  
Month to date heating degree days 26 19  
Since 1 June heating degree days 26 19  
Since 1 July heating degree days 6271 6315  
Cooling Degree Days 20 8  
Month to date cooling degree days 120 128  
Year to date cooling degree days 197 192  
Since 1 June cooling degree days 120 128  
Growing Degree Days 35 (Base 50)    
Moisture  
Dew Point 71 °F    
Average Humidity 64    
Maximum Humidity 79    
Minimum Humidity 49    
Precipitation  
Precipitation 0.00 in 0.17 in 1.50 in (2014)
Month to date precipitation 1.64 3.75  
Year to date precipitation 25.39 16.28  
Sea Level Pressure  
Sea Level Pressure 29.92 in    
Wind  
Wind Speed 13 mph (South)    
Max Wind Speed 22 mph    
Max Gust Speed 28 mph    
Visibility 10 miles    
Events Thunderstorm    
T = Trace of Precipitation, MM = Missing Value Source: NWS Daily Summary

Daily Weather History Graph

Daily Weather History Graph

Search for Another Location

Airport:

Trip Planner

Search our weather history database for the weather conditions in past years. The results will help you decide how hot, cold, wet, or windy it might be!

Date:

Astronomy

Jun. 22, 2013 Rise Set
Actual Time 5:37 AM CDT 8:46 PM CDT
Civil Twilight 5:03 AM CDT 9:19 PM CDT
Nautical Twilight 4:20 AM CDT 10:02 PM CDT
Astronomical Twilight 3:29 AM CDT 10:54 PM CDT
Moon 8:00 PM CDT (6/22) 4:51 AM CDT (6/22)
Length of Visible Light 16h 15m
Length of Day
15h 08m
Waxing Gibbous, 99% of the Moon is Illuminated
Jun 22
Waxing Gibbous
Jun 23
Full
Jun 29
Last Quarter
Jul 8
New
Jul 15
First Quarter

Hourly Weather History & Observations

Time (CDT) Temp. Heat Index Dew Point Humidity Pressure Visibility Wind Dir Wind Speed Gust Speed Precip Events Conditions
12:53 AM 79.0 °F - 72.0 °F 79% 29.91 in 10.0 mi South 11.5 mph - N/A   Clear
1:53 AM 79.0 °F - 72.0 °F 79% 29.90 in 10.0 mi South 13.8 mph - N/A   Clear
2:53 AM 78.1 °F - 72.0 °F 81% 29.91 in 10.0 mi SSW 15.0 mph - N/A   Clear
3:53 AM 78.1 °F - 72.0 °F 81% 29.93 in 10.0 mi South 11.5 mph - N/A   Clear
4:53 AM 78.1 °F - 72.0 °F 81% 29.93 in 10.0 mi South 11.5 mph - N/A   Clear
5:53 AM 78.1 °F - 71.1 °F 79% 29.94 in 10.0 mi SSW 15.0 mph - N/A   Clear
6:49 AM 77.0 °F - 71.6 °F 83% 29.97 in 10.0 mi SSW 11.5 mph - N/A Thunderstorm Thunderstorm
6:53 AM 78.1 °F - 71.1 °F 79% 29.94 in 10.0 mi SSW 12.7 mph - N/A Thunderstorm Thunderstorm
7:04 AM 78.8 °F - 71.6 °F 78% 29.96 in 10.0 mi South 11.5 mph - N/A   Partly Cloudy
7:53 AM 79.0 °F - 72.0 °F 79% 29.95 in 10.0 mi SSW 11.5 mph - N/A   Clear
8:53 AM 80.1 °F 83.6 °F 71.1 °F 74% 29.97 in 10.0 mi South 11.5 mph - N/A   Clear
9:53 AM 82.9 °F 87.5 °F 71.1 °F 67% 29.97 in 10.0 mi SSW 12.7 mph - N/A   Clear
10:53 AM 84.9 °F 90.1 °F 71.1 °F 63% 29.99 in 10.0 mi SSW 11.5 mph - N/A   Partly Cloudy
11:53 AM 86.0 °F 92.2 °F 72.0 °F 63% 29.97 in 10.0 mi South 13.8 mph - N/A   Scattered Clouds
12:07 PM 87.8 °F 93.8 °F 71.6 °F 58% 29.99 in 10.0 mi South 13.8 mph 23.0 mph N/A   Mostly Cloudy
12:14 PM 87.8 °F 93.8 °F 71.6 °F 58% 29.99 in 10.0 mi South 13.8 mph - N/A   Scattered Clouds
12:53 PM 87.1 °F 92.8 °F 71.1 °F 59% 29.96 in 10.0 mi SW 9.2 mph - N/A   Mostly Cloudy
1:53 PM 89.1 °F 96.0 °F 72.0 °F 57% 29.90 in 10.0 mi South 17.3 mph - N/A   Partly Cloudy
2:53 PM 91.0 °F 97.6 °F 71.1 °F 52% 29.88 in 10.0 mi South 19.6 mph 27.6 mph N/A   Clear
3:53 PM 93.0 °F 100.1 °F 71.1 °F 49% 29.86 in 10.0 mi SSW 18.4 mph 24.2 mph N/A   Clear
4:53 PM 91.9 °F 99.5 °F 72.0 °F 52% 29.88 in 10.0 mi South 15.0 mph 23.0 mph N/A   Partly Cloudy
5:53 PM 91.0 °F 97.6 °F 71.1 °F 52% 29.87 in 10.0 mi South 16.1 mph 20.7 mph N/A   Clear
6:53 PM 88.0 °F 93.8 °F 71.1 °F 57% 29.86 in 10.0 mi South 10.4 mph - N/A   Clear
7:53 PM 86.0 °F 92.2 °F 72.0 °F 63% 29.87 in 10.0 mi South 10.4 mph - N/A   Clear
8:53 PM 84.0 °F 89.0 °F 71.1 °F 65% 29.88 in 10.0 mi South 10.4 mph - N/A   Scattered Clouds
9:53 PM 82.9 °F 87.5 °F 71.1 °F 67% 29.88 in 10.0 mi South 12.7 mph - N/A   Clear
10:53 PM 81.0 °F 84.9 °F 71.1 °F 72% 29.90 in 10.0 mi South 12.7 mph - N/A   Clear
11:53 PM 79.0 °F - 71.1 °F 77% 29.91 in 10.0 mi South 13.8 mph - N/A   Clear